Weather History for Jonesboro, AR

Change the Weather History Date:

Sunday, May 4, 2014

  Actual Average Record
Temperature  
Mean Temperature 74 °F 66 °F  
Max Temperature 89 °F 76 °F 94 °F (1906)
Min Temperature 59 °F 55 °F 35 °F (2013)
Degree Days  
Heating Degree Days 0 2  
Month to date heating degree days 20 10  
Since 1 July heating degree days 4106 3625  
Cooling Degree Days 9 3  
Month to date cooling degree days 9 10  
Year to date cooling degree days 30 57  
Growing Degree Days 24 (Base 50)    
Moisture  
Dew Point 49 °F    
Average Humidity 45    
Maximum Humidity 64    
Minimum Humidity 26    
Precipitation  
Precipitation 0.00 in 0.21 in 2.50 in (1906)
Month to date precipitation 0.00 0.78  
Year to date precipitation 16.70 17.45  
Snow  
Snow 0.00 in 0.00 in - ()
Month to date snowfall 0.0 0.0  
Since 1 July snowfall 5.2 4.8  
Snow Depth 0.00 in    
Sea Level Pressure  
Sea Level Pressure 29.94 in    
Wind  
Wind Speed 11 mph (SW)    
Max Wind Speed 24 mph    
Max Gust Speed 29 mph    
Visibility 10 miles    
Events      
T = Trace of Precipitation, MM = Missing Value Source: NWS Daily Summary

Daily Weather History Graph

Daily Weather History Graph

Search for Another Location

Airport:

Trip Planner

Search our weather history database for the weather conditions in past years. The results will help you decide how hot, cold, wet, or windy it might be!

Date:

Astronomy

May. 04, 2014 Rise Set
Actual Time 6:07 AM CDT 7:52 PM CDT
Civil Twilight 5:39 AM CDT 8:19 PM CDT
Nautical Twilight 5:06 AM CDT 8:53 PM CDT
Astronomical Twilight 4:30 AM CDT 9:28 PM CDT
Moon 10:32 AM CDT (5/4) No Moon Set
Length of Visible Light 14h 40m
Length of Day
13h 44m
Waxing Crescent, 28% of the Moon is Illuminated
May 4
Waxing Crescent
May 6
First Quarter
May 14
Full
May 21
Last Quarter
May 28
New

Hourly Weather History & Observations

Time (CDT) Temp. Dew Point Humidity Pressure Visibility Wind Dir Wind Speed Gust Speed Precip Events Conditions
12:53 AM 64.0 °F 48.0 °F 56% 29.97 in 10.0 mi SW 6.9 mph - N/A   Clear
1:53 AM 60.1 °F 48.0 °F 64% 29.96 in 10.0 mi Calm Calm - N/A   Clear
2:53 AM 61.0 °F 48.0 °F 62% 29.96 in 10.0 mi SW 6.9 mph - N/A   Clear
3:53 AM 62.1 °F 48.0 °F 60% 29.96 in 10.0 mi SW 5.8 mph - N/A   Clear
4:53 AM 62.1 °F 46.9 °F 58% 29.96 in 10.0 mi SW 5.8 mph - N/A   Clear
5:53 AM 60.1 °F 48.0 °F 64% 29.98 in 10.0 mi SW 4.6 mph - N/A   Clear
6:53 AM 60.1 °F 48.9 °F 67% 30.00 in 10.0 mi Calm Calm - N/A   Clear
7:53 AM 66.0 °F 48.9 °F 54% 30.01 in 10.0 mi SSW 8.1 mph - N/A   Clear
8:53 AM 70.0 °F 48.9 °F 47% 30.01 in 10.0 mi SW 9.2 mph - N/A   Clear
9:53 AM 73.9 °F 50.0 °F 43% 30.01 in 10.0 mi WSW 11.5 mph - N/A   Clear
10:53 AM 78.1 °F 50.0 °F 37% 30.01 in 10.0 mi SSW 13.8 mph - N/A   Clear
11:53 AM 81.0 °F 48.9 °F 33% 29.99 in 10.0 mi SW 16.1 mph 23.0 mph N/A   Clear
12:53 PM 82.9 °F 51.1 °F 33% 29.96 in 10.0 mi SSW 16.1 mph 23.0 mph N/A   Clear
1:53 PM 84.9 °F 48.9 °F 29% 29.94 in 10.0 mi SW 17.3 mph - N/A   Clear
2:53 PM 88.0 °F 50.0 °F 27% 29.92 in 10.0 mi SW 17.3 mph - N/A   Clear
3:53 PM 88.0 °F 50.0 °F 27% 29.90 in 10.0 mi SW 18.4 mph - N/A   Clear
4:53 PM 88.0 °F 48.0 °F 25% 29.88 in 10.0 mi SW 20.7 mph 28.8 mph N/A   Clear
5:53 PM 87.1 °F 48.0 °F 26% 29.87 in 10.0 mi SSW 17.3 mph 27.6 mph N/A   Clear
6:53 PM 84.0 °F 51.1 °F 32% 29.86 in 10.0 mi SSW 11.5 mph - N/A   Clear
7:53 PM 79.0 °F 52.0 °F 39% 29.87 in 10.0 mi SSW 9.2 mph - N/A   Clear
8:53 PM 75.0 °F 52.0 °F 44% 29.88 in 10.0 mi SSW 8.1 mph - N/A   Clear
9:53 PM 75.9 °F 51.1 °F 42% 29.89 in 10.0 mi SSW 10.4 mph - N/A   Clear
10:53 PM 72.0 °F 52.0 °F 49% 29.90 in 10.0 mi SW 8.1 mph - N/A   Clear
11:53 PM 73.0 °F 51.1 °F 46% 29.90 in 10.0 mi SSW 10.4 mph - N/A   Clear